This is the latest recevied weather packets stored in our database for station/object SP4LIN-15. If no packets are shown the sender has not sent any weather packets the latest 10 day(s).
| Time | Temp. | Humidity | Pressure | Rain* | Wind** | Luminosity | Snow |
|---|---|---|---|---|---|---|---|
| 1777820048 | 31.11° C | 24% | 1004 hPa | 0 mm | - | - | - |
| 1777819148 | 31.11° C | 23% | 1004.4 hPa | 0 mm | - | - | - |
| 1777818248 | 30° C | 23% | 1004.8 hPa | 0 mm | - | - | - |
| 1777817349 | 28.89° C | 24% | 1004.8 hPa | 0 mm | - | - | - |
| 1777816448 | 30.56° C | 23% | 1005 hPa | 0 mm | - | - | - |
| 1777815549 | 28.89° C | 23% | 1005.2 hPa | 0 mm | - | - | - |
| 1777814648 | 28.89° C | 23% | 1005.4 hPa | 0 mm | - | - | - |
| 1777813749 | 28.33° C | 26% | 1005.6 hPa | 0 mm | - | - | - |
| 1777812849 | 28.89° C | 23% | 1005.6 hPa | 0 mm | - | - | - |
| 1777811949 | 29.44° C | 23% | 1005.7 hPa | 0 mm | - | - | - |
| 1777811049 | 30° C | 23% | 1005.8 hPa | 0 mm | - | - | - |
| 1777810149 | 29.44° C | 26% | 1005.8 hPa | 0 mm | - | - | - |
| 1777809249 | 28.33° C | 28% | 1005.8 hPa | 0 mm | - | - | - |
| 1777808349 | 27.22° C | 27% | 1006.1 hPa | 0 mm | - | - | - |
| 1777807449 | 28.89° C | 26% | 1006.1 hPa | 0 mm | - | - | - |
| 1777806549 | 28.89° C | 27% | 1006.3 hPa | 0 mm | - | - | - |
| 1777805649 | 29.44° C | 27% | 1006.5 hPa | 0 mm | - | - | - |
| 1777804749 | 28.89° C | 27% | 1006.8 hPa | 0 mm | - | - | - |
| 1777803849 | 28.89° C | 28% | 1006.7 hPa | 0 mm | - | - | - |
| 1777802949 | 28.89° C | 28% | 1006.8 hPa | 0 mm | - | - | - |
| 1777802049 | 28.89° C | 28% | 1006.8 hPa | 0 mm | - | - | - |
| 1777800577 | 27.78° C | 29% | 1007.1 hPa | 0 mm | - | - | - |
| 1777799677 | 28.33° C | 29% | 1007.2 hPa | 0 mm | - | - | - |
| 1777798777 | 27.78° C | 32% | 1007.3 hPa | 0 mm | - | - | - |
| 1777797877 | 26.11° C | 32% | 1007.5 hPa | 0 mm | - | - | - |
* Rain latest hour (hover to see other rain measurements)
** Current wind speed in m/s (hover to see current wind gust speed)